Weather reports worldwide

Advertisment
Levens Hall, United Kingdom (99172): temperature & dewpoint: 12.07.2018 19:00:00 - 18.07.2018 19:00:00 (BST)Levens Hall, United Kingdom (99172): precipitation: 12.07.2018 19:00:00 - 18.07.2018 19:00:00 (BST)
Date & Time tt [°C] td [°C] rr [mm]
18.07.2018 19:00:00 - - -
18.07.2018 18:00:00 20,1 12,0 0,0
18.07.2018 17:00:00 20,6 11,8 0,0
18.07.2018 16:00:00 21,3 11,6 0,0
18.07.2018 15:00:00 20,8 10,6 0,0
18.07.2018 14:00:00 20,8 13,3 0,0
18.07.2018 13:00:00 20,6 12,2 0,0
18.07.2018 12:00:00 19,8 11,8 0,0
18.07.2018 11:00:00 18,5 12,1 0,0
18.07.2018 10:00:00 16,6 12,2 0,0
18.07.2018 09:00:00 14,5 11,8 0,0
18.07.2018 08:00:00 11,9 10,4 0,0
18.07.2018 07:00:00 9,6 9,1 0,0
18.07.2018 06:00:00 8,0 7,4 0,0
18.07.2018 05:00:00 7,9 7,2 0,0
18.07.2018 04:00:00 8,4 7,7 0,0
18.07.2018 03:00:00 8,6 7,8 0,0
18.07.2018 02:00:00 9,2 8,3 0,0
18.07.2018 01:00:00 9,7 8,5 0,0
18.07.2018 00:00:00 10,4 9,1 0,0
17.07.2018 23:00:00 11,4 9,3 0,0
17.07.2018 22:00:00 12,6 9,3 0,0
17.07.2018 21:00:00 15,0 8,7 0,0
17.07.2018 20:00:00 16,4 8,8 0,0
17.07.2018 19:00:00 17,5 9,9 0,0
17.07.2018 18:00:00 16,8 10,9 0,0
17.07.2018 17:00:00 17,4 11,4 0,0
17.07.2018 16:00:00 17,9 10,8 0,0
17.07.2018 15:00:00 17,0 11,4 0,0
17.07.2018 14:00:00 17,1 11,8 0,0
17.07.2018 13:00:00 16,9 11,9 0,0
17.07.2018 12:00:00 17,2 12,5 0,0
17.07.2018 11:00:00 16,9 12,5 0,0
17.07.2018 10:00:00 16,6 13,2 0,0
17.07.2018 09:00:00 16,2 14,0 0,0
17.07.2018 08:00:00 13,8 13,3 0,0
17.07.2018 07:00:00 12,5 12,2 0,0
17.07.2018 06:00:00 12,1 11,7 0,0
17.07.2018 05:00:00 11,7 11,4 0,0
17.07.2018 04:00:00 11,1 10,5 0,0
17.07.2018 03:00:00 12,3 11,4 0,0
17.07.2018 02:00:00 13,6 12,2 0,0
17.07.2018 01:00:00 13,6 12,4 0,0
17.07.2018 00:00:00 14,1 13,1 0,0
16.07.2018 23:00:00 14,5 13,5 0,2
16.07.2018 22:00:00 14,7 13,4 0,0
16.07.2018 21:00:00 15,8 14,3 0,2
16.07.2018 20:00:00 16,0 14,7 0,0
16.07.2018 19:00:00 16,0 14,6 1,2
16.07.2018 18:00:00 15,8 14,8 3,2
16.07.2018 17:00:00 16,7 14,7 0,6
16.07.2018 16:00:00 18,0 14,2 0,0
16.07.2018 15:00:00 17,8 14,8 0,0
16.07.2018 14:00:00 16,8 14,5 0,0
16.07.2018 13:00:00 17,3 13,1 0,0
16.07.2018 12:00:00 17,7 14,3 0,0
16.07.2018 11:00:00 17,1 15,0 0,0
16.07.2018 10:00:00 17,1 15,4 0,0
16.07.2018 09:00:00 16,6 15,9 0,2
16.07.2018 08:00:00 16,7 16,0 0,0
16.07.2018 07:00:00 16,9 16,4 0,6
16.07.2018 06:00:00 16,6 16,1 0,2
16.07.2018 05:00:00 16,5 16,0 1,2
16.07.2018 04:00:00 16,4 15,4 0,2
16.07.2018 03:00:00 17,7 15,0 0,0
16.07.2018 02:00:00 17,6 15,0 0,0
16.07.2018 01:00:00 17,2 14,7 0,0
16.07.2018 00:00:00 16,3 14,3 0,0
15.07.2018 23:00:00 16,4 14,1 0,0
15.07.2018 22:00:00 16,8 13,6 0,0
15.07.2018 21:00:00 18,7 13,7 0,0
15.07.2018 20:00:00 20,4 14,1 0,0
15.07.2018 19:00:00 22,1 14,5 0,0
15.07.2018 18:00:00 22,4 14,2 0,0
15.07.2018 17:00:00 23,0 13,8 0,0
15.07.2018 16:00:00 23,0 14,5 0,0
15.07.2018 15:00:00 23,0 14,1 0,0
15.07.2018 14:00:00 22,9 14,9 0,0
15.07.2018 13:00:00 21,5 14,8 0,0
15.07.2018 12:00:00 20,0 14,2 0,0
15.07.2018 11:00:00 20,7 15,2 0,0
15.07.2018 10:00:00 19,1 14,6 0,0
15.07.2018 09:00:00 17,8 14,6 0,0
15.07.2018 08:00:00 16,0 14,6 0,0
15.07.2018 07:00:00 14,6 14,2 0,0
15.07.2018 06:00:00 13,2 12,6 0,0
15.07.2018 05:00:00 12,8 12,1 0,0
15.07.2018 04:00:00 13,1 12,4 0,0
15.07.2018 03:00:00 13,1 12,2 0,0
15.07.2018 02:00:00 12,7 11,8 0,0
15.07.2018 01:00:00 13,2 12,1 0,0
15.07.2018 00:00:00 14,4 12,8 0,0
14.07.2018 23:00:00 15,2 12,9 0,0
14.07.2018 22:00:00 16,7 12,8 0,0
14.07.2018 21:00:00 19,2 12,9 0,0
14.07.2018 20:00:00 21,3 13,0 0,0
14.07.2018 19:00:00 22,0 13,8 0,0
14.07.2018 18:00:00 22,7 13,7 0,0
14.07.2018 17:00:00 22,5 14,4 0,0
14.07.2018 16:00:00 22,2 14,6 0,0
14.07.2018 15:00:00 21,6 14,0 0,0
14.07.2018 14:00:00 20,9 14,2 0,0
14.07.2018 13:00:00 20,8 15,4 0,0
14.07.2018 12:00:00 19,0 14,2 0,0
14.07.2018 11:00:00 19,4 14,0 0,0
14.07.2018 10:00:00 18,5 14,3 0,0
14.07.2018 09:00:00 17,1 13,2 0,0
14.07.2018 08:00:00 14,3 13,0 0,0
14.07.2018 07:00:00 12,4 12,1 0,0
14.07.2018 06:00:00 11,0 10,6 0,0
14.07.2018 05:00:00 10,6 9,9 0,0
14.07.2018 04:00:00 11,2 10,4 0,0
14.07.2018 03:00:00 12,1 11,0 0,0
14.07.2018 02:00:00 13,5 12,0 0,0
14.07.2018 01:00:00 15,5 13,8 0,0
14.07.2018 00:00:00 15,5 13,7 0,0
13.07.2018 23:00:00 16,2 13,7 0,0
13.07.2018 22:00:00 17,1 14,1 0,0
13.07.2018 21:00:00 18,1 15,6 0,0
13.07.2018 20:00:00 19,3 14,7 0,0
13.07.2018 19:00:00 19,9 15,0 0,0
13.07.2018 18:00:00 19,8 14,9 0,0
13.07.2018 17:00:00 19,2 15,1 0,0
13.07.2018 16:00:00 18,9 14,7 0,0
13.07.2018 15:00:00 18,3 14,9 0,0
13.07.2018 14:00:00 17,0 15,2 0,0
13.07.2018 13:00:00 15,8 14,6 0,2
13.07.2018 12:00:00 15,1 14,0 1,0
13.07.2018 11:00:00 15,7 13,8 0,4
13.07.2018 10:00:00 16,8 13,4 0,0
13.07.2018 09:00:00 16,5 13,6 0,0
13.07.2018 08:00:00 16,5 13,4 0,0
13.07.2018 07:00:00 15,8 13,0 0,0
13.07.2018 06:00:00 14,9 12,4 0,0
13.07.2018 05:00:00 13,9 12,2 0,0
13.07.2018 04:00:00 13,7 12,1 0,0
13.07.2018 03:00:00 14,1 12,6 0,0
13.07.2018 02:00:00 14,3 12,4 0,0
13.07.2018 01:00:00 15,5 12,8 0,0
13.07.2018 00:00:00 16,1 13,1 0,0
12.07.2018 23:00:00 16,4 14,1 0,0
12.07.2018 22:00:00 18,3 14,4 0,0
12.07.2018 21:00:00 19,9 14,3 0,0
12.07.2018 20:00:00 20,5 15,0 0,0
12.07.2018 19:00:00 20,6 15,1 0,0

tt = temperature
td = dewpoint
rr = precipitation

Next stations